sat.trackr.live / text

‹ back to catalog

STARLINK-1183

NORAD 45088 · 2020-006AW

PAYLOAD ACTIVE UNKNOWN

§ Identity

Operator
Country
US
Launch date
2020-01-29
Launch site
AFETR
Launch vehicle
Mass (kg)
RCS (m²)

Purposes: comms

External: N2YO · Heavens-Above · Gunter

§ Orbital elements

Epoch: 2026-05-24T23:40:22.215072Z

Period
93.90 min
Inclination
53.1566°
Eccentricity
0.0003081
Mean motion
15.33610628 rev/d
Perigee alt
462.9 km
Apogee alt
467.2 km
Semi-major
6,843.2 km
B*
8.1801e-4
RAAN
247.6023°
Arg perigee
332.1722°
Mean anomaly
27.9115°
Rev number
34,877

§ Raw data

STARLINK-11831 45088U 20006AW  26144.98636823  .00026680  00000+0  81801-3 0  99972 45088  53.1566 247.6023 0003081 332.1722  27.9115 15.33610628348778

JSON: /api/v1/satellites/45088 · /tle

For live sub-satellite position, see the globe view (requires WebGL).

§ Visibility from observer

Set your observer location to see the next 7 days of passes ≥ 10°. The values pass through the URL so the page stays shareable.

No JS? Fill the form by hand. The geolocation button needs JavaScript.